Time,TemperatureF,DewpointF,PressureIn,WindDirection,WindDirectionDegrees,WindSpeedMPH,WindSpeedGustMPH,Humidity,HourlyPrecipIn,Conditions,Clouds,dailyrainin,SoftwareType,DateUTC
2013-08-28 00:01:00,73.9,72.0,29.92,SSE,162,2.0,6.0,94,0.00,,,0.75,WUHU216DAVISVP2,2013-08-28 04:01:00,
2013-08-28 00:02:00,73.9,72.0,29.91,SSE,162,0.0,6.0,94,0.00,,,0.75,WUHU216DAVISVP2,2013-08-28 04:02:00,
2013-08-28 00:07:00,74.1,71.9,29.91,SSE,158,0.0,6.0,93,0.00,,,0.00,WUHU216DAVISVP2,2013-08-28 04:07:00,
2013-08-28 00:12:00,74.1,72.2,29.91,SSE,158,0.0,6.0,94,0.00,,,0.00,WUHU216DAVISVP2,2013-08-28 04:12:00,
2013-08-28 00:17:00,74.1,72.2,29.91,SSE,158,0.0,0.0,94,0.00,,,0.00,WUHU216DAVISVP2,2013-08-28 04:17:00,
2013-08-28 00:22:00,74.0,72.1,29.91,SSE,158,0.0,0.0,94,0.00,,,0.00,WUHU216DAVISVP2,2013-08-28 04:22:00,
2013-08-28 00:27:00,73.9,72.0,29.91,SSE,158,0.0,2.0,94,0.00,,,0.00,WUHU216DAVISVP2,2013-08-28 04:27:00,
2013-08-28 00:32:00,73.8,71.9,29.91,SSE,158,0.0,2.0,94,0.00,,,0.00,WUHU216DAVISVP2,2013-08-28 04:32:00,
2013-08-28 00:38:00,73.7,72.1,29.91,SSE,158,0.0,0.0,95,0.00,,,0.00,WUHU216DAVISVP2,2013-08-28 04:38:00,
2013-08-28 00:43:00,73.6,72.0,29.91,SSE,158,0.0,0.0,95,0.00,,,0.00,WUHU216DAVISVP2,2013-08-28 04:43:00,
2013-08-28 00:48:00,73.6,72.0,29.91,SSE,158,0.0,0.0,95,0.00,,,0.00,WUHU216DAVISVP2,2013-08-28 04:48:00,
2013-08-28 00:53:00,73.5,71.9,29.91,SSE,158,0.0,0.0,95,0.00,,,0.00,WUHU216DAVISVP2,2013-08-28 04:53:00,
2013-08-28 00:58:00,73.5,72.3,29.90,SSE,158,0.0,0.0,96,0.00,,,0.00,WUHU216DAVISVP2,2013-08-28 04:58:00,
2013-08-28 01:04:00,73.5,72.3,29.89,SSE,159,0.0,2.0,96,0.00,,,0.00,WUHU216DAVISVP2,2013-08-28 05:04:00,
2013-08-28 01:09:00,73.4,72.2,29.90,SSE,150,0.0,4.0,96,0.00,,,0.00,WUHU216DAVISVP2,2013-08-28 05:09:00,
2013-08-28 01:14:00,73.4,72.2,29.90,SSE,150,0.0,4.0,96,0.00,,,0.00,WUHU216DAVISVP2,2013-08-28 05:14:00,
2013-08-28 01:19:00,73.4,72.2,29.90,SE,141,0.0,6.0,96,0.00,,,0.00,WUHU216DAVISVP2,2013-08-28 05:19:00,
2013-08-28 01:24:00,73.4,72.2,29.90,SSE,156,0.0,6.0,96,0.00,,,0.00,WUHU216DAVISVP2,2013-08-28 05:24:00,
2013-08-28 01:29:00,73.3,72.1,29.90,SSE,156,0.0,2.0,96,0.00,,,0.00,WUHU216DAVISVP2,2013-08-28 05:29:00,
2013-08-28 01:34:00,73.3,72.1,29.90,SSE,156,0.0,2.0,96,0.00,,,0.00,WUHU216DAVISVP2,2013-08-28 05:34:00,
2013-08-28 01:39:00,73.3,72.1,29.90,SSE,156,0.0,2.0,96,0.00,,,0.00,WUHU216DAVISVP2,2013-08-28 05:39:00,
2013-08-28 01:44:00,73.3,72.1,29.90,SSE,156,0.0,2.0,96,0.00,,,0.00,WUHU216DAVISVP2,2013-08-28 05:44:00,
2013-08-28 01:49:00,73.3,72.1,29.90,SSE,156,0.0,0.0,96,0.00,,,0.00,WUHU216DAVISVP2,2013-08-28 05:49:00,
2013-08-28 01:54:00,73.2,72.0,29.90,SSE,156,0.0,2.0,96,0.00,,,0.00,WUHU216DAVISVP2,2013-08-28 05:54:00,
2013-08-28 01:59:00,73.2,72.0,29.89,SSE,156,0.0,2.0,96,0.00,,,0.00,WUHU216DAVISVP2,2013-08-28 05:59:00,
2013-08-28 02:04:00,73.2,72.0,29.89,SSW,197,0.0,6.0,96,0.00,,,0.00,WUHU216DAVISVP2,2013-08-28 06:04:00,
2013-08-28 02:09:00,73.2,72.0,29.89,SSW,197,0.0,6.0,96,0.00,,,0.00,WUHU216DAVISVP2,2013-08-28 06:09:00,
2013-08-28 02:14:00,73.2,72.0,29.90,SSE,161,0.0,8.0,96,0.00,,,0.00,WUHU216DAVISVP2,2013-08-28 06:14:00,
2013-08-28 02:19:00,73.2,72.0,29.89,SSE,161,0.0,8.0,96,0.00,,,0.00,WUHU216DAVISVP2,2013-08-28 06:19:00,
2013-08-28 02:24:00,73.1,71.9,29.89,South,179,0.0,8.0,96,0.00,,,0.00,WUHU216DAVISVP2,2013-08-28 06:24:00,
2013-08-28 02:29:00,73.2,72.0,29.88,SSW,193,0.0,8.0,96,0.00,,,0.00,WUHU216DAVISVP2,2013-08-28 06:29:00,
2013-08-28 02:34:00,73.2,72.0,29.88,South,173,2.0,8.0,96,0.00,,,0.00,WUHU216DAVISVP2,2013-08-28 06:34:00,
2013-08-28 02:39:00,73.2,72.0,29.89,South,173,0.0,6.0,96,0.00,,,0.00,WUHU216DAVISVP2,2013-08-28 06:39:00,
2013-08-28 02:44:00,73.2,72.0,29.89,South,173,0.0,2.0,96,0.00,,,0.00,WUHU216DAVISVP2,2013-08-28 06:44:00,
2013-08-28 02:49:00,73.1,71.9,29.90,WNW,290,0.0,4.0,96,0.01,,,0.01,WUHU216DAVISVP2,2013-08-28 06:49:00,
2013-08-28 02:54:00,73.0,71.8,29.88,SE,135,4.0,14.0,96,0.06,,,0.06,WUHU216DAVISVP2,2013-08-28 06:54:00,
2013-08-28 02:59:00,72.8,71.6,29.88,WSW,248,6.0,14.0,96,0.07,,,0.07,WUHU216DAVISVP2,2013-08-28 06:59:00,
2013-08-28 03:04:00,72.7,71.5,29.88,SSW,209,0.0,12.0,96,0.07,,,0.07,WUHU216DAVISVP2,2013-08-28 07:04:00,
2013-08-28 03:09:00,72.5,71.3,29.88,South,178,2.0,10.0,96,0.07,,,0.07,WUHU216DAVISVP2,2013-08-28 07:09:00,
2013-08-28 03:14:00,72.4,71.2,29.88,ENE,73,0.0,8.0,96,0.07,,,0.07,WUHU216DAVISVP2,2013-08-28 07:14:00,
2013-08-28 03:19:00,72.3,71.1,29.88,ENE,73,0.0,6.0,96,0.07,,,0.07,WUHU216DAVISVP2,2013-08-28 07:19:00,
2013-08-28 03:24:00,72.2,71.0,29.88,ENE,73,0.0,2.0,96,0.07,,,0.07,WUHU216DAVISVP2,2013-08-28 07:24:00,
2013-08-28 03:29:00,72.2,71.0,29.88,ENE,74,0.0,4.0,96,0.07,,,0.07,WUHU216DAVISVP2,2013-08-28 07:29:00,
2013-08-28 03:34:00,72.1,70.9,29.88,ENE,74,0.0,4.0,96,0.07,,,0.07,WUHU216DAVISVP2,2013-08-28 07:34:00,
2013-08-28 03:39:00,72.1,70.9,29.87,SE,139,2.0,2.0,96,0.07,,,0.07,WUHU216DAVISVP2,2013-08-28 07:39:00,
2013-08-28 03:44:00,71.9,70.7,29.88,ESE,119,0.0,6.0,96,0.07,,,0.07,WUHU216DAVISVP2,2013-08-28 07:44:00,
2013-08-28 03:49:00,71.9,70.7,29.87,ESE,113,0.0,6.0,96,0.05,,,0.07,WUHU216DAVISVP2,2013-08-28 07:49:00,
2013-08-28 03:54:00,71.8,70.6,29.87,ESE,116,0.0,12.0,96,0.01,,,0.07,WUHU216DAVISVP2,2013-08-28 07:54:00,
2013-08-28 03:59:00,71.8,70.6,29.87,South,176,0.0,12.0,96,0.00,,,0.07,WUHU216DAVISVP2,2013-08-28 07:59:00,
2013-08-28 04:04:00,71.8,70.9,29.87,South,177,0.0,6.0,97,0.00,,,0.07,WUHU216DAVISVP2,2013-08-28 08:04:00,
2013-08-28 04:09:00,71.8,70.9,29.86,South,175,0.0,6.0,97,0.00,,,0.07,WUHU216DAVISVP2,2013-08-28 08:09:00,
2013-08-28 04:14:00,71.8,70.9,29.86,SE,132,0.0,6.0,97,0.00,,,0.07,WUHU216DAVISVP2,2013-08-28 08:14:00,
2013-08-28 04:19:00,71.7,70.8,29.85,SSW,201,6.0,10.0,97,0.00,,,0.07,WUHU216DAVISVP2,2013-08-28 08:19:00,
2013-08-28 04:24:00,71.7,70.8,29.85,SSE,147,0.0,10.0,97,0.00,,,0.07,WUHU216DAVISVP2,2013-08-28 08:24:00,
2013-08-28 04:29:00,71.7,70.8,29.85,South,178,2.0,10.0,97,0.00,,,0.07,WUHU216DAVISVP2,2013-08-28 08:29:00,
2013-08-28 04:34:00,71.7,70.8,29.85,South,176,2.0,10.0,97,0.00,,,0.07,WUHU216DAVISVP2,2013-08-28 08:34:00,
2013-08-28 04:39:00,71.6,70.7,29.85,South,186,0.0,8.0,97,0.00,,,0.07,WUHU216DAVISVP2,2013-08-28 08:39:00,
2013-08-28 04:44:00,71.6,70.4,29.85,South,170,0.0,8.0,96,0.00,,,0.07,WUHU216DAVISVP2,2013-08-28 08:44:00,
2013-08-28 04:49:00,71.5,70.3,29.85,SSE,167,6.0,8.0,96,0.00,,,0.07,WUHU216DAVISVP2,2013-08-28 08:49:00,
2013-08-28 04:54:00,71.5,70.3,29.85,South,186,2.0,8.0,96,0.00,,,0.07,WUHU216DAVISVP2,2013-08-28 08:54:00,
2013-08-28 04:59:00,71.5,70.3,29.85,SSE,155,0.0,8.0,96,0.00,,,0.07,WUHU216DAVISVP2,2013-08-28 08:59:00,
2013-08-28 05:04:00,71.5,70.6,29.85,South,182,0.0,8.0,97,0.00,,,0.07,WUHU216DAVISVP2,2013-08-28 09:04:00,
2013-08-28 05:09:00,71.5,70.6,29.86,SSE,155,0.0,6.0,97,0.00,,,0.07,WUHU216DAVISVP2,2013-08-28 09:09:00,
2013-08-28 05:14:00,71.5,70.6,29.85,South,185,0.0,6.0,97,0.00,,,0.07,WUHU216DAVISVP2,2013-08-28 09:14:00,
2013-08-28 05:19:00,71.6,70.7,29.85,SSE,153,0.0,6.0,97,0.00,,,0.07,WUHU216DAVISVP2,2013-08-28 09:19:00,
2013-08-28 05:24:00,71.6,70.7,29.85,SE,141,0.0,6.0,97,0.00,,,0.07,WUHU216DAVISVP2,2013-08-28 09:24:00,
2013-08-28 05:29:00,71.6,70.7,29.84,SSE,155,6.0,10.0,97,0.00,,,0.07,WUHU216DAVISVP2,2013-08-28 09:29:00,
2013-08-28 05:34:00,71.5,70.6,29.84,South,170,10.0,10.0,97,0.00,,,0.07,WUHU216DAVISVP2,2013-08-28 09:34:00,
2013-08-28 05:39:00,71.5,70.6,29.84,South,176,6.0,10.0,97,0.00,,,0.07,WUHU216DAVISVP2,2013-08-28 09:39:00,
2013-08-28 05:44:00,71.5,70.6,29.84,SE,144,2.0,10.0,97,0.00,,,0.07,WUHU216DAVISVP2,2013-08-28 09:44:00,
2013-08-28 05:49:00,71.4,70.5,29.84,SE,143,2.0,10.0,97,0.00,,,0.07,WUHU216DAVISVP2,2013-08-28 09:49:00,
2013-08-28 05:54:00,71.4,70.5,29.84,SSW,192,10.0,10.0,97,0.00,,,0.07,WUHU216DAVISVP2,2013-08-28 09:54:00,
2013-08-28 05:59:00,71.4,70.5,29.84,SSW,208,0.0,12.0,97,0.00,,,0.07,WUHU216DAVISVP2,2013-08-28 09:59:00,
2013-08-28 06:04:00,71.4,70.5,29.84,SSE,157,0.0,12.0,97,0.00,,,0.07,WUHU216DAVISVP2,2013-08-28 10:04:00,
2013-08-28 06:09:00,71.4,70.5,29.84,South,175,0.0,8.0,97,0.00,,,0.07,WUHU216DAVISVP2,2013-08-28 10:09:00,
2013-08-28 06:14:00,71.6,70.7,29.83,South,173,0.0,10.0,97,0.00,,,0.07,WUHU216DAVISVP2,2013-08-28 10:14:00,
2013-08-28 06:19:00,71.7,70.8,29.83,South,180,4.0,10.0,97,0.00,,,0.07,WUHU216DAVISVP2,2013-08-28 10:19:00,
2013-08-28 06:24:00,71.8,70.9,29.83,South,180,2.0,8.0,97,0.00,,,0.07,WUHU216DAVISVP2,2013-08-28 10:24:00,
2013-08-28 06:29:00,71.9,71.0,29.83,SE,144,0.0,8.0,97,0.00,,,0.07,WUHU216DAVISVP2,2013-08-28 10:29:00,
2013-08-28 06:34:00,71.9,71.0,29.84,South,172,0.0,8.0,97,0.00,,,0.07,WUHU216DAVISVP2,2013-08-28 10:34:00,
2013-08-28 06:39:00,72.0,71.1,29.83,SSW,210,0.0,10.0,97,0.00,,,0.07,WUHU216DAVISVP2,2013-08-28 10:39:00,
2013-08-28 06:44:00,72.0,71.1,29.83,SSW,200,4.0,10.0,97,0.00,,,0.07,WUHU216DAVISVP2,2013-08-28 10:44:00,
2013-08-28 06:49:00,72.1,71.2,29.83,SSE,157,0.0,8.0,97,0.00,,,0.07,WUHU216DAVISVP2,2013-08-28 10:49:00,
2013-08-28 06:54:00,72.1,71.2,29.83,South,177,0.0,8.0,97,0.00,,,0.07,WUHU216DAVISVP2,2013-08-28 10:54:00,
2013-08-28 06:59:00,72.1,71.2,29.83,South,177,0.0,8.0,97,0.00,,,0.07,WUHU216DAVISVP2,2013-08-28 10:59:00,
2013-08-28 07:04:00,72.1,71.2,29.84,South,179,0.0,4.0,97,0.00,,,0.07,WUHU216DAVISVP2,2013-08-28 11:04:00,
2013-08-28 07:09:00,72.1,71.2,29.84,WSW,240,0.0,6.0,97,0.00,,,0.07,WUHU216DAVISVP2,2013-08-28 11:09:00,
2013-08-28 07:14:00,72.1,71.2,29.84,South,186,2.0,10.0,97,0.00,,,0.07,WUHU216DAVISVP2,2013-08-28 11:14:00,
2013-08-28 07:19:00,72.2,71.3,29.84,SSE,168,0.0,10.0,97,0.00,,,0.07,WUHU216DAVISVP2,2013-08-28 11:19:00,
2013-08-28 07:24:00,72.2,71.3,29.84,South,178,0.0,6.0,97,0.00,,,0.07,WUHU216DAVISVP2,2013-08-28 11:24:00,
2013-08-28 07:29:00,72.2,71.0,29.84,South,179,2.0,6.0,96,0.00,,,0.07,WUHU216DAVISVP2,2013-08-28 11:29:00,
2013-08-28 07:34:00,72.2,71.0,29.84,SW,221,0.0,6.0,96,0.00,,,0.07,WUHU216DAVISVP2,2013-08-28 11:34:00,
2013-08-28 07:39:00,72.2,71.0,29.84,South,189,0.0,6.0,96,0.00,,,0.07,WUHU216DAVISVP2,2013-08-28 11:39:00,
2013-08-28 07:44:00,72.2,71.0,29.84,South,180,2.0,6.0,96,0.00,,,0.07,WUHU216DAVISVP2,2013-08-28 11:44:00,
2013-08-28 07:49:00,72.2,71.0,29.84,SSE,163,0.0,4.0,96,0.00,,,0.07,WUHU216DAVISVP2,2013-08-28 11:49:00,
2013-08-28 07:54:00,72.2,71.3,29.84,SSE,159,0.0,4.0,97,0.00,,,0.07,WUHU216DAVISVP2,2013-08-28 11:54:00,
2013-08-28 07:59:00,72.2,71.3,29.85,West,277,0.0,6.0,97,0.01,,,0.08,WUHU216DAVISVP2,2013-08-28 11:59:00,
2013-08-28 08:04:00,72.2,71.3,29.85,WSW,244,0.0,6.0,97,0.01,,,0.08,WUHU216DAVISVP2,2013-08-28 12:04:00,
2013-08-28 08:09:00,72.2,71.3,29.85,WSW,244,0.0,2.0,97,0.01,,,0.08,WUHU216DAVISVP2,2013-08-28 12:09:00,
2013-08-28 08:14:00,72.2,71.3,29.85,WSW,244,0.0,0.0,97,0.01,,,0.08,WUHU216DAVISVP2,2013-08-28 12:14:00,
2013-08-28 08:19:00,72.2,71.3,29.85,WSW,254,0.0,4.0,97,0.01,,,0.08,WUHU216DAVISVP2,2013-08-28 12:19:00,
2013-08-28 08:24:00,72.2,71.3,29.85,East,84,0.0,4.0,97,0.01,,,0.08,WUHU216DAVISVP2,2013-08-28 12:24:00,
2013-08-28 08:29:00,72.2,71.3,29.85,West,261,2.0,8.0,97,0.01,,,0.08,WUHU216DAVISVP2,2013-08-28 12:29:00,
2013-08-28 08:34:00,72.2,71.3,29.85,WSW,248,0.0,12.0,97,0.01,,,0.08,WUHU216DAVISVP2,2013-08-28 12:34:00,
2013-08-28 08:39:00,72.3,71.4,29.85,North,355,0.0,12.0,97,0.02,,,0.09,WUHU216DAVISVP2,2013-08-28 12:39:00,
2013-08-28 08:44:00,72.3,71.4,29.84,WSW,242,0.0,6.0,97,0.02,,,0.09,WUHU216DAVISVP2,2013-08-28 12:44:00,
2013-08-28 08:49:00,72.3,71.4,29.84,NNW,345,2.0,6.0,97,0.02,,,0.09,WUHU216DAVISVP2,2013-08-28 12:49:00,
2013-08-28 08:54:00,72.3,71.4,29.85,West,265,0.0,10.0,97,0.02,,,0.09,WUHU216DAVISVP2,2013-08-28 12:54:00,
2013-08-28 08:59:00,72.3,71.4,29.85,NNW,333,0.0,10.0,97,0.01,,,0.09,WUHU216DAVISVP2,2013-08-28 12:59:00,
2013-08-28 09:04:00,72.3,71.4,29.84,NNW,332,0.0,6.0,97,0.01,,,0.09,WUHU216DAVISVP2,2013-08-28 13:04:00,
2013-08-28 09:09:00,72.3,71.4,29.84,WSW,255,12.0,12.0,97,0.01,,,0.09,WUHU216DAVISVP2,2013-08-28 13:09:00,
2013-08-28 09:14:00,72.4,71.5,29.84,NNW,348,2.0,16.0,97,0.01,,,0.09,WUHU216DAVISVP2,2013-08-28 13:14:00,
2013-08-28 09:19:00,72.4,71.5,29.84,NW,314,0.0,16.0,97,0.01,,,0.09,WUHU216DAVISVP2,2013-08-28 13:19:00,
2013-08-28 09:24:00,72.4,71.5,29.84,WSW,241,0.0,10.0,97,0.01,,,0.09,WUHU216DAVISVP2,2013-08-28 13:24:00,
2013-08-28 09:29:00,72.5,71.9,29.84,SW,215,6.0,6.0,98,0.01,,,0.09,WUHU216DAVISVP2,2013-08-28 13:29:00,
2013-08-28 09:34:00,72.5,71.9,29.84,SE,136,0.0,6.0,98,0.01,,,0.09,WUHU216DAVISVP2,2013-08-28 13:34:00,
2013-08-28 09:39:00,72.6,72.0,29.84,NE,42,0.0,8.0,98,0.00,,,0.09,WUHU216DAVISVP2,2013-08-28 13:39:00,
2013-08-28 09:44:00,72.6,72.0,29.84,NNW,336,2.0,8.0,98,0.00,,,0.09,WUHU216DAVISVP2,2013-08-28 13:44:00,
2013-08-28 09:49:00,72.7,72.1,29.84,North,11,2.0,4.0,98,0.00,,,0.09,WUHU216DAVISVP2,2013-08-28 13:49:00,
2013-08-28 09:54:00,72.8,72.2,29.84,WSW,257,0.0,8.0,98,0.00,,,0.09,WUHU216DAVISVP2,2013-08-28 13:54:00,
2013-08-28 09:59:00,72.9,72.3,29.84,North,351,2.0,8.0,98,0.00,,,0.09,WUHU216DAVISVP2,2013-08-28 13:59:00,
2013-08-28 10:04:00,72.9,72.0,29.83,NNE,17,0.0,6.0,97,0.00,,,0.09,WUHU216DAVISVP2,2013-08-28 14:04:00,
2013-08-28 10:09:00,72.9,72.0,29.84,NW,320,0.0,6.0,97,0.00,,,0.09,WUHU216DAVISVP2,2013-08-28 14:09:00,
2013-08-28 10:14:00,72.9,72.0,29.84,NW,325,0.0,4.0,97,0.00,,,0.09,WUHU216DAVISVP2,2013-08-28 14:14:00,
2013-08-28 10:19:00,72.9,72.0,29.84,NNE,30,2.0,8.0,97,0.00,,,0.09,WUHU216DAVISVP2,2013-08-28 14:19:00,
2013-08-28 10:24:00,72.9,72.0,29.84,East,98,2.0,8.0,97,0.00,,,0.09,WUHU216DAVISVP2,2013-08-28 14:24:00,
2013-08-28 10:29:00,73.0,72.1,29.84,WNW,290,2.0,6.0,97,0.00,,,0.09,WUHU216DAVISVP2,2013-08-28 14:29:00,
2013-08-28 10:34:00,73.0,72.1,29.84,NNW,336,0.0,4.0,97,0.00,,,0.09,WUHU216DAVISVP2,2013-08-28 14:34:00,
2013-08-28 10:39:00,73.1,72.2,29.84,WSW,244,4.0,8.0,97,0.00,,,0.09,WUHU216DAVISVP2,2013-08-28 14:39:00,
2013-08-28 10:44:00,73.3,72.4,29.84,NNE,29,4.0,8.0,97,0.00,,,0.09,WUHU216DAVISVP2,2013-08-28 14:44:00,
2013-08-28 10:49:00,73.5,72.6,29.84,WSW,249,2.0,16.0,97,0.00,,,0.09,WUHU216DAVISVP2,2013-08-28 14:49:00,
2013-08-28 10:54:00,73.5,72.6,29.84,WNW,288,0.0,16.0,97,0.00,,,0.09,WUHU216DAVISVP2,2013-08-28 14:54:00,
2013-08-28 10:59:00,73.6,72.7,29.84,East,80,0.0,10.0,97,0.00,,,0.09,WUHU216DAVISVP2,2013-08-28 14:59:00,
2013-08-28 11:04:00,73.8,72.9,29.84,NNE,30,2.0,10.0,97,0.00,,,0.09,WUHU216DAVISVP2,2013-08-28 15:04:00,
2013-08-28 11:09:00,73.8,72.6,29.84,NNW,338,2.0,6.0,96,0.00,,,0.09,WUHU216DAVISVP2,2013-08-28 15:09:00,
2013-08-28 11:14:00,73.8,72.6,29.85,NNW,329,2.0,14.0,96,0.00,,,0.09,WUHU216DAVISVP2,2013-08-28 15:14:00,
2013-08-28 11:19:00,73.8,72.6,29.85,North,360,2.0,14.0,96,0.00,,,0.09,WUHU216DAVISVP2,2013-08-28 15:19:00,
2013-08-28 11:24:00,73.8,72.6,29.84,NE,44,2.0,8.0,96,0.00,,,0.09,WUHU216DAVISVP2,2013-08-28 15:24:00,
2013-08-28 11:29:00,73.7,72.5,29.84,NW,312,4.0,8.0,96,0.00,,,0.09,WUHU216DAVISVP2,2013-08-28 15:29:00,
2013-08-28 11:34:00,73.7,72.5,29.84,WSW,240,4.0,8.0,96,0.00,,,0.09,WUHU216DAVISVP2,2013-08-28 15:34:00,
2013-08-28 11:39:00,73.7,72.5,29.84,WNW,292,4.0,8.0,96,0.00,,,0.09,WUHU216DAVISVP2,2013-08-28 15:39:00,
2013-08-28 11:44:00,73.7,72.5,29.84,NNE,28,0.0,6.0,96,0.00,,,0.09,WUHU216DAVISVP2,2013-08-28 15:44:00,
2013-08-28 11:49:00,73.7,72.5,29.84,WNW,298,4.0,6.0,96,0.00,,,0.09,WUHU216DAVISVP2,2013-08-28 15:49:00,
2013-08-28 11:54:00,73.6,72.4,29.85,WSW,249,6.0,6.0,96,0.00,,,0.09,WUHU216DAVISVP2,2013-08-28 15:54:00,
2013-08-28 11:59:00,73.6,72.4,29.84,WNW,286,0.0,8.0,96,0.00,,,0.09,WUHU216DAVISVP2,2013-08-28 15:59:00,
2013-08-28 12:04:00,73.6,72.4,29.84,NW,306,4.0,8.0,96,0.00,,,0.09,WUHU216DAVISVP2,2013-08-28 16:04:00,
2013-08-28 12:09:00,73.6,72.4,29.84,WNW,288,2.0,8.0,96,0.00,,,0.09,WUHU216DAVISVP2,2013-08-28 16:09:00,
2013-08-28 12:14:00,73.5,72.3,29.84,WNW,292,0.0,8.0,96,0.00,,,0.09,WUHU216DAVISVP2,2013-08-28 16:14:00,
2013-08-28 12:19:00,73.5,72.3,29.85,WNW,293,2.0,6.0,96,0.00,,,0.09,WUHU216DAVISVP2,2013-08-28 16:19:00,
2013-08-28 12:24:00,73.6,72.7,29.85,NNW,328,0.0,4.0,97,0.00,,,0.09,WUHU216DAVISVP2,2013-08-28 16:24:00,
2013-08-28 12:29:00,73.5,72.3,29.85,NW,321,0.0,4.0,96,0.00,,,0.09,WUHU216DAVISVP2,2013-08-28 16:29:00,
2013-08-28 12:34:00,73.5,72.3,29.85,NNE,33,0.0,8.0,96,0.00,,,0.09,WUHU216DAVISVP2,2013-08-28 16:34:00,
2013-08-28 12:39:00,73.6,72.4,29.85,NW,316,2.0,8.0,96,0.00,,,0.09,WUHU216DAVISVP2,2013-08-28 16:39:00,
2013-08-28 12:44:00,73.6,72.4,29.85,NW,313,0.0,8.0,96,0.00,,,0.09,WUHU216DAVISVP2,2013-08-28 16:44:00,
2013-08-28 12:49:00,73.7,72.5,29.85,NE,50,2.0,12.0,96,0.00,,,0.09,WUHU216DAVISVP2,2013-08-28 16:49:00,
2013-08-28 12:54:00,73.7,72.1,29.85,WNW,300,2.0,12.0,95,0.00,,,0.09,WUHU216DAVISVP2,2013-08-28 16:54:00,
2013-08-28 12:59:00,73.6,72.0,29.85,NNE,13,2.0,6.0,95,0.00,,,0.09,WUHU216DAVISVP2,2013-08-28 16:59:00,
2013-08-28 13:04:00,73.4,71.9,29.85,NE,43,0.0,6.0,95,0.00,,,0.09,WUHU216DAVISVP2,2013-08-28 17:04:00,
2013-08-28 13:09:00,73.5,71.9,29.86,North,355,2.0,6.0,95,0.00,,,0.09,WUHU216DAVISVP2,2013-08-28 17:09:00,
2013-08-28 13:14:00,73.6,72.0,29.85,North,360,0.0,14.0,95,0.00,,,0.09,WUHU216DAVISVP2,2013-08-28 17:14:00,
2013-08-28 13:19:00,73.7,72.1,29.86,SSE,151,2.0,14.0,95,0.00,,,0.09,WUHU216DAVISVP2,2013-08-28 17:19:00,
2013-08-28 13:24:00,73.7,72.1,29.86,NNW,336,2.0,6.0,95,0.00,,,0.09,WUHU216DAVISVP2,2013-08-28 17:24:00,
2013-08-28 13:29:00,73.6,71.7,29.86,NNW,337,4.0,8.0,94,0.00,,,0.09,WUHU216DAVISVP2,2013-08-28 17:29:00,
2013-08-28 13:34:00,73.5,71.6,29.86,NE,51,2.0,12.0,94,0.00,,,0.09,WUHU216DAVISVP2,2013-08-28 17:34:00,
2013-08-28 13:39:00,73.5,71.9,29.86,West,281,0.0,12.0,95,0.00,,,0.09,WUHU216DAVISVP2,2013-08-28 17:39:00,
2013-08-28 13:44:00,73.5,71.9,29.86,NW,316,4.0,6.0,95,0.00,,,0.09,WUHU216DAVISVP2,2013-08-28 17:44:00,
2013-08-28 13:49:00,73.6,71.7,29.86,NW,315,0.0,6.0,94,0.00,,,0.09,WUHU216DAVISVP2,2013-08-28 17:49:00,
2013-08-28 13:54:00,73.7,71.8,29.86,SSE,150,0.0,6.0,94,0.00,,,0.09,WUHU216DAVISVP2,2013-08-28 17:54:00,
2013-08-28 13:59:00,73.6,71.4,29.86,NNE,28,2.0,14.0,93,0.00,,,0.09,WUHU216DAVISVP2,2013-08-28 17:59:00,
2013-08-28 14:04:00,73.6,71.4,29.86,WSW,251,2.0,14.0,93,0.00,,,0.09,WUHU216DAVISVP2,2013-08-28 18:04:00,
2013-08-28 14:09:00,73.7,71.8,29.86,WNW,290,0.0,6.0,94,0.00,,,0.09,WUHU216DAVISVP2,2013-08-28 18:09:00,
2013-08-28 14:14:00,73.8,71.9,29.86,NNE,25,4.0,10.0,94,0.00,,,0.09,WUHU216DAVISVP2,2013-08-28 18:14:00,
2013-08-28 14:19:00,73.8,71.6,29.87,WNW,292,2.0,10.0,93,0.00,,,0.09,WUHU216DAVISVP2,2013-08-28 18:19:00,
2013-08-28 14:24:00,73.7,71.5,29.87,WSW,249,4.0,6.0,93,0.00,,,0.09,WUHU216DAVISVP2,2013-08-28 18:24:00,
2013-08-28 14:29:00,73.5,71.3,29.87,NE,51,4.0,6.0,93,0.00,,,0.09,WUHU216DAVISVP2,2013-08-28 18:29:00,
2013-08-28 14:34:00,73.3,71.4,29.87,NW,325,0.0,8.0,94,0.00,,,0.09,WUHU216DAVISVP2,2013-08-28 18:34:00,
2013-08-28 14:39:00,73.3,71.4,29.87,NE,39,6.0,8.0,94,0.00,,,0.09,WUHU216DAVISVP2,2013-08-28 18:39:00,
2013-08-28 14:44:00,73.5,71.9,29.87,NE,39,0.0,6.0,95,0.00,,,0.09,WUHU216DAVISVP2,2013-08-28 18:44:00,
2013-08-28 14:49:00,73.7,71.8,29.88,NNW,335,2.0,6.0,94,0.00,,,0.09,WUHU216DAVISVP2,2013-08-28 18:49:00,
2013-08-28 14:54:00,74.0,72.1,29.87,NW,322,0.0,4.0,94,0.00,,,0.09,WUHU216DAVISVP2,2013-08-28 18:54:00,
2013-08-28 14:59:00,74.2,72.3,29.88,NW,322,0.0,4.0,94,0.00,,,0.09,WUHU216DAVISVP2,2013-08-28 18:59:00,
2013-08-28 15:04:00,74.3,72.4,29.88,North,355,2.0,6.0,94,0.00,,,0.09,WUHU216DAVISVP2,2013-08-28 19:04:00,
2013-08-28 15:09:00,74.5,72.3,29.88,NE,52,0.0,8.0,93,0.00,,,0.09,WUHU216DAVISVP2,2013-08-28 19:09:00,
2013-08-28 15:14:00,74.6,72.1,29.88,NNW,335,0.0,12.0,92,0.00,,,0.09,WUHU216DAVISVP2,2013-08-28 19:14:00,
2013-08-28 15:19:00,74.6,71.8,29.88,NE,43,0.0,12.0,91,0.00,,,0.09,WUHU216DAVISVP2,2013-08-28 19:19:00,
2013-08-28 15:24:00,74.8,72.0,29.89,NE,48,0.0,10.0,91,0.00,,,0.09,WUHU216DAVISVP2,2013-08-28 19:24:00,
2013-08-28 15:29:00,74.8,71.7,29.89,East,81,4.0,10.0,90,0.00,,,0.09,WUHU216DAVISVP2,2013-08-28 19:29:00,
2013-08-28 15:34:00,75.1,71.6,29.89,NNE,15,2.0,10.0,89,0.00,,,0.09,WUHU216DAVISVP2,2013-08-28 19:34:00,
2013-08-28 15:39:00,75.4,71.9,29.89,NE,44,4.0,10.0,89,0.00,,,0.09,WUHU216DAVISVP2,2013-08-28 19:39:00,
2013-08-28 15:44:00,75.7,71.9,29.89,East,95,0.0,12.0,88,0.00,,,0.09,WUHU216DAVISVP2,2013-08-28 19:44:00,
2013-08-28 15:49:00,75.8,71.7,29.89,North,360,0.0,12.0,87,0.00,,,0.09,WUHU216DAVISVP2,2013-08-28 19:49:00,
2013-08-28 15:54:00,75.9,71.8,29.89,NNW,346,2.0,12.0,87,0.00,,,0.09,WUHU216DAVISVP2,2013-08-28 19:54:00,
2013-08-28 15:59:00,75.7,71.9,29.89,NW,306,0.0,12.0,88,0.00,,,0.09,WUHU216DAVISVP2,2013-08-28 19:59:00,
2013-08-28 16:04:00,75.4,71.6,29.89,NNE,32,0.0,14.0,88,0.00,,,0.09,WUHU216DAVISVP2,2013-08-28 20:04:00,
2013-08-28 16:09:00,75.2,71.7,29.89,NNE,27,0.0,14.0,89,0.00,,,0.09,WUHU216DAVISVP2,2013-08-28 20:09:00,
2013-08-28 16:14:00,75.2,72.1,29.89,NNE,27,0.0,6.0,90,0.00,,,0.09,WUHU216DAVISVP2,2013-08-28 20:14:00,
2013-08-28 16:19:00,75.1,71.6,29.89,NW,304,4.0,6.0,89,0.00,,,0.09,WUHU216DAVISVP2,2013-08-28 20:19:00,
2013-08-28 16:24:00,74.9,71.4,29.90,NNE,14,6.0,12.0,89,0.00,,,0.09,WUHU216DAVISVP2,2013-08-28 20:24:00,
2013-08-28 16:29:00,74.8,71.7,29.90,North,5,0.0,14.0,90,0.00,,,0.09,WUHU216DAVISVP2,2013-08-28 20:29:00,
2013-08-28 16:34:00,74.8,71.7,29.90,East,88,2.0,14.0,90,0.00,,,0.09,WUHU216DAVISVP2,2013-08-28 20:34:00,
2013-08-28 16:39:00,74.8,71.7,29.90,North,5,2.0,8.0,90,0.00,,,0.09,WUHU216DAVISVP2,2013-08-28 20:39:00,
2013-08-28 16:44:00,74.6,71.5,29.90,North,11,0.0,8.0,90,0.00,,,0.09,WUHU216DAVISVP2,2013-08-28 20:44:00,
2013-08-28 16:49:00,74.7,71.9,29.90,East,81,0.0,8.0,91,0.00,,,0.09,WUHU216DAVISVP2,2013-08-28 20:49:00,
2013-08-28 16:54:00,75.0,72.2,29.90,NNE,23,0.0,6.0,91,0.00,,,0.09,WUHU216DAVISVP2,2013-08-28 20:54:00,
2013-08-28 16:59:00,75.3,72.2,29.91,West,279,6.0,6.0,90,0.00,,,0.09,WUHU216DAVISVP2,2013-08-28 20:59:00,
2013-08-28 17:04:00,75.4,71.9,29.91,East,90,2.0,10.0,89,0.00,,,0.09,WUHU216DAVISVP2,2013-08-28 21:04:00,
2013-08-28 17:09:00,75.6,72.4,29.91,ESE,109,0.0,10.0,90,0.00,,,0.09,WUHU216DAVISVP2,2013-08-28 21:09:00,
2013-08-28 17:14:00,75.9,71.8,29.91,NNE,17,2.0,10.0,87,0.00,,,0.09,WUHU216DAVISVP2,2013-08-28 21:14:00,
2013-08-28 17:19:00,75.9,71.4,29.91,NE,54,0.0,12.0,86,0.00,,,0.09,WUHU216DAVISVP2,2013-08-28 21:19:00,
2013-08-28 17:24:00,75.8,71.7,29.91,WNW,302,4.0,12.0,87,0.00,,,0.09,WUHU216DAVISVP2,2013-08-28 21:24:00,
2013-08-28 17:29:00,75.8,71.7,29.91,NNE,24,0.0,8.0,87,0.00,,,0.09,WUHU216DAVISVP2,2013-08-28 21:29:00,
2013-08-28 17:34:00,75.8,71.7,29.91,ESE,107,0.0,8.0,87,0.00,,,0.09,WUHU216DAVISVP2,2013-08-28 21:34:00,
2013-08-28 17:39:00,75.8,71.7,29.91,ESE,108,0.0,4.0,87,0.00,,,0.09,WUHU216DAVISVP2,2013-08-28 21:39:00,
2013-08-28 17:44:00,75.7,71.6,29.91,NNE,13,2.0,6.0,87,0.00,,,0.09,WUHU216DAVISVP2,2013-08-28 21:44:00,
2013-08-28 17:49:00,75.6,71.5,29.91,NNE,26,0.0,6.0,87,0.00,,,0.09,WUHU216DAVISVP2,2013-08-28 21:49:00,
2013-08-28 17:54:00,75.5,71.4,29.91,East,86,0.0,4.0,87,0.00,,,0.09,WUHU216DAVISVP2,2013-08-28 21:54:00,
2013-08-28 17:59:00,75.3,71.2,29.91,NNE,16,0.0,8.0,87,0.00,,,0.09,WUHU216DAVISVP2,2013-08-28 21:59:00,
2013-08-28 18:04:00,75.2,71.1,29.91,WNW,296,2.0,8.0,87,0.00,,,0.09,WUHU216DAVISVP2,2013-08-28 22:04:00,
2013-08-28 18:09:00,75.0,70.9,29.92,East,88,2.0,6.0,87,0.00,,,0.09,WUHU216DAVISVP2,2013-08-28 22:09:00,
2013-08-28 18:14:00,74.9,70.8,29.91,NE,43,0.0,6.0,87,0.00,,,0.09,WUHU216DAVISVP2,2013-08-28 22:14:00,
2013-08-28 18:19:00,74.8,71.0,29.91,ENE,62,0.0,6.0,88,0.00,,,0.09,WUHU216DAVISVP2,2013-08-28 22:19:00,
2013-08-28 18:24:00,74.7,70.6,29.91,ENE,60,0.0,8.0,87,0.00,,,0.09,WUHU216DAVISVP2,2013-08-28 22:24:00,
2013-08-28 18:29:00,74.5,70.7,29.92,NE,38,0.0,8.0,88,0.00,,,0.09,WUHU216DAVISVP2,2013-08-28 22:29:00,
2013-08-28 18:34:00,74.5,70.7,29.92,NE,38,0.0,4.0,88,0.00,,,0.09,WUHU216DAVISVP2,2013-08-28 22:34:00,
2013-08-28 18:39:00,74.6,71.1,29.92,NE,39,0.0,2.0,89,0.00,,,0.09,WUHU216DAVISVP2,2013-08-28 22:39:00,
2013-08-28 18:44:00,74.6,70.8,29.92,NE,36,2.0,8.0,88,0.00,,,0.09,WUHU216DAVISVP2,2013-08-28 22:44:00,
2013-08-28 18:49:00,74.7,70.9,29.91,NNE,22,0.0,10.0,88,0.00,,,0.09,WUHU216DAVISVP2,2013-08-28 22:49:00,
2013-08-28 18:54:00,74.7,70.9,29.92,WNW,300,0.0,10.0,88,0.00,,,0.09,WUHU216DAVISVP2,2013-08-28 22:54:00,
2013-08-28 18:59:00,74.7,70.9,29.91,North,355,0.0,6.0,88,0.00,,,0.09,WUHU216DAVISVP2,2013-08-28 22:59:00,
2013-08-28 19:04:00,74.8,71.0,29.91,NNE,22,0.0,6.0,88,0.00,,,0.09,WUHU216DAVISVP2,2013-08-28 23:04:00,
2013-08-28 19:09:00,74.7,71.2,29.92,NE,51,0.0,6.0,89,0.00,,,0.09,WUHU216DAVISVP2,2013-08-28 23:09:00,
2013-08-28 19:14:00,74.6,71.1,29.92,NNE,31,0.0,6.0,89,0.00,,,0.09,WUHU216DAVISVP2,2013-08-28 23:14:00,
2013-08-28 19:19:00,74.5,71.0,29.92,South,177,2.0,6.0,89,0.00,,,0.09,WUHU216DAVISVP2,2013-08-28 23:19:00,
2013-08-28 19:24:00,74.4,71.3,29.92,NE,34,0.0,6.0,90,0.00,,,0.09,WUHU216DAVISVP2,2013-08-28 23:24:00,
2013-08-28 19:29:00,74.2,71.1,29.92,NE,35,0.0,6.0,90,0.00,,,0.09,WUHU216DAVISVP2,2013-08-28 23:29:00,
2013-08-28 19:34:00,74.0,70.9,29.92,NNE,17,2.0,4.0,90,0.00,,,0.09,WUHU216DAVISVP2,2013-08-28 23:34:00,
2013-08-28 19:39:00,73.8,71.0,29.93,NNE,17,0.0,4.0,91,0.00,,,0.09,WUHU216DAVISVP2,2013-08-28 23:39:00,
2013-08-28 19:44:00,73.6,70.8,29.93,NNE,17,0.0,0.0,91,0.00,,,0.09,WUHU216DAVISVP2,2013-08-28 23:44:00,
2013-08-28 19:49:00,73.4,70.6,29.93,NNE,17,0.0,0.0,91,0.00,,,0.09,WUHU216DAVISVP2,2013-08-28 23:49:00,
2013-08-28 19:54:00,73.2,70.4,29.93,NNE,17,0.0,0.0,91,0.00,,,0.09,WUHU216DAVISVP2,2013-08-28 23:54:00,
2013-08-28 19:59:00,73.0,70.5,29.93,NNE,17,0.0,2.0,92,0.00,,,0.09,WUHU216DAVISVP2,2013-08-28 23:59:00,
2013-08-28 20:04:00,72.8,70.3,29.93,NNE,17,0.0,2.0,92,0.00,,,0.09,WUHU216DAVISVP2,2013-08-29 00:04:00,
2013-08-28 20:09:00,72.6,70.1,29.94,NNE,17,0.0,0.0,92,0.00,,,0.09,WUHU216DAVISVP2,2013-08-29 00:09:00,
2013-08-28 20:14:00,72.3,70.1,29.94,NNE,17,0.0,0.0,93,0.00,,,0.09,WUHU216DAVISVP2,2013-08-29 00:14:00,
2013-08-28 20:19:00,72.1,69.9,29.94,NNE,17,0.0,0.0,93,0.00,,,0.09,WUHU216DAVISVP2,2013-08-29 00:19:00,
2013-08-28 20:24:00,71.9,69.7,29.94,NNE,17,0.0,0.0,93,0.00,,,0.09,WUHU216DAVISVP2,2013-08-29 00:24:00,
2013-08-28 20:29:00,71.7,69.5,29.94,NNE,17,0.0,0.0,93,0.00,,,0.09,WUHU216DAVISVP2,2013-08-29 00:29:00,
2013-08-28 20:34:00,71.6,69.8,29.94,NNE,17,0.0,0.0,94,0.00,,,0.09,WUHU216DAVISVP2,2013-08-29 00:34:00,
2013-08-28 20:39:00,71.3,69.5,29.94,NNE,17,0.0,0.0,94,0.00,,,0.09,WUHU216DAVISVP2,2013-08-29 00:39:00,
2013-08-28 20:44:00,71.2,69.4,29.95,NNE,17,0.0,0.0,94,0.00,,,0.09,WUHU216DAVISVP2,2013-08-29 00:44:00,
2013-08-28 20:49:00,71.1,69.3,29.95,NNE,17,0.0,0.0,94,0.00,,,0.09,WUHU216DAVISVP2,2013-08-29 00:49:00,
2013-08-28 20:54:00,70.9,69.4,29.95,NNE,17,0.0,0.0,95,0.00,,,0.09,WUHU216DAVISVP2,2013-08-29 00:54:00,
2013-08-28 20:59:00,70.8,69.3,29.95,NNE,17,0.0,0.0,95,0.00,,,0.09,WUHU216DAVISVP2,2013-08-29 00:59:00,
2013-08-28 21:04:00,70.7,69.2,29.96,NNE,17,0.0,0.0,95,0.00,,,0.09,WUHU216DAVISVP2,2013-08-29 01:04:00,
2013-08-28 21:09:00,70.5,69.0,29.96,NNE,17,0.0,0.0,95,0.00,,,0.09,WUHU216DAVISVP2,2013-08-29 01:09:00,
2013-08-28 21:14:00,70.4,68.9,29.96,NNE,17,0.0,0.0,95,0.00,,,0.09,WUHU216DAVISVP2,2013-08-29 01:14:00,
2013-08-28 21:19:00,70.3,68.8,29.96,NNE,17,0.0,0.0,95,0.00,,,0.09,WUHU216DAVISVP2,2013-08-29 01:19:00,
2013-08-28 21:24:00,70.2,68.7,29.97,NNE,17,0.0,0.0,95,0.00,,,0.09,WUHU216DAVISVP2,2013-08-29 01:24:00,
2013-08-28 21:29:00,70.0,68.5,29.97,NNE,17,0.0,0.0,95,0.00,,,0.09,WUHU216DAVISVP2,2013-08-29 01:29:00,
2013-08-28 21:34:00,69.9,68.4,29.97,NNE,17,0.0,0.0,95,0.00,,,0.09,WUHU216DAVISVP2,2013-08-29 01:34:00,
2013-08-28 21:39:00,69.8,68.6,29.97,NNE,17,0.0,0.0,96,0.00,,,0.09,WUHU216DAVISVP2,2013-08-29 01:39:00,
2013-08-28 21:44:00,69.7,68.5,29.98,NNE,17,0.0,0.0,96,0.00,,,0.09,WUHU216DAVISVP2,2013-08-29 01:44:00,
2013-08-28 21:49:00,69.7,68.5,29.98,NNE,17,0.0,0.0,96,0.00,,,0.09,WUHU216DAVISVP2,2013-08-29 01:49:00,
2013-08-28 21:54:00,69.7,68.5,29.98,NNE,17,0.0,0.0,96,0.00,,,0.09,WUHU216DAVISVP2,2013-08-29 01:54:00,
2013-08-28 21:59:00,69.8,68.9,29.98,NNE,17,0.0,0.0,97,0.00,,,0.09,WUHU216DAVISVP2,2013-08-29 01:59:00,
2013-08-28 22:04:00,69.7,68.8,29.98,NNE,17,0.0,0.0,97,0.00,,,0.09,WUHU216DAVISVP2,2013-08-29 02:04:00,
2013-08-28 22:09:00,69.7,68.8,29.98,NNE,17,0.0,0.0,97,0.00,,,0.09,WUHU216DAVISVP2,2013-08-29 02:09:00,
2013-08-28 22:14:00,69.8,68.9,29.98,NNE,17,0.0,0.0,97,0.00,,,0.09,WUHU216DAVISVP2,2013-08-29 02:14:00,
2013-08-28 22:19:00,69.8,68.9,29.98,NNE,17,0.0,0.0,97,0.00,,,0.09,WUHU216DAVISVP2,2013-08-29 02:19:00,
2013-08-28 22:24:00,69.8,68.9,29.98,NNE,17,0.0,0.0,97,0.00,,,0.09,WUHU216DAVISVP2,2013-08-29 02:24:00,
2013-08-28 22:29:00,69.9,69.0,29.98,NNE,17,0.0,0.0,97,0.00,,,0.09,WUHU216DAVISVP2,2013-08-29 02:29:00,
2013-08-28 22:34:00,69.9,69.0,29.98,NNE,17,0.0,0.0,97,0.00,,,0.09,WUHU216DAVISVP2,2013-08-29 02:34:00,
2013-08-28 22:39:00,69.9,69.0,29.98,NNE,17,0.0,0.0,97,0.00,,,0.09,WUHU216DAVISVP2,2013-08-29 02:39:00,
2013-08-28 22:44:00,69.9,69.0,29.98,NNE,17,0.0,0.0,97,0.00,,,0.09,WUHU216DAVISVP2,2013-08-29 02:44:00,
2013-08-28 22:49:00,69.9,69.0,29.99,NNE,17,0.0,0.0,97,0.00,,,0.09,WUHU216DAVISVP2,2013-08-29 02:49:00,
2013-08-28 22:54:00,69.8,68.9,29.99,NNE,17,0.0,0.0,97,0.00,,,0.09,WUHU216DAVISVP2,2013-08-29 02:54:00,
2013-08-28 22:59:00,69.8,69.2,29.99,NNE,17,0.0,0.0,98,0.00,,,0.09,WUHU216DAVISVP2,2013-08-29 02:59:00,
2013-08-28 23:04:00,69.9,69.3,29.99,NNE,17,0.0,0.0,98,0.00,,,0.09,WUHU216DAVISVP2,2013-08-29 03:04:00,
2013-08-28 23:09:00,69.8,69.2,29.99,NNE,17,0.0,0.0,98,0.00,,,0.09,WUHU216DAVISVP2,2013-08-29 03:09:00,
2013-08-28 23:14:00,69.7,68.8,29.99,NNE,17,0.0,0.0,97,0.00,,,0.09,WUHU216DAVISVP2,2013-08-29 03:14:00,
2013-08-28 23:19:00,69.5,68.6,29.99,NNE,17,0.0,0.0,97,0.00,,,0.09,WUHU216DAVISVP2,2013-08-29 03:19:00,
2013-08-28 23:24:00,69.4,68.5,29.99,NNE,17,0.0,0.0,97,0.00,,,0.09,WUHU216DAVISVP2,2013-08-29 03:24:00,
2013-08-28 23:29:00,69.2,68.3,29.99,NNE,17,0.0,0.0,97,0.00,,,0.09,WUHU216DAVISVP2,2013-08-29 03:29:00,
2013-08-28 23:34:00,69.1,68.2,29.99,NNE,17,0.0,0.0,97,0.00,,,0.09,WUHU216DAVISVP2,2013-08-29 03:34:00,
2013-08-28 23:39:00,69.0,68.1,29.99,NNE,17,0.0,0.0,97,0.00,,,0.09,WUHU216DAVISVP2,2013-08-29 03:39:00,
2013-08-28 23:44:00,68.9,68.0,29.99,NNE,17,0.0,0.0,97,0.00,,,0.09,WUHU216DAVISVP2,2013-08-29 03:44:00,
2013-08-28 23:49:00,68.9,68.0,29.99,NNE,17,0.0,0.0,97,0.00,,,0.09,WUHU216DAVISVP2,2013-08-29 03:49:00,
2013-08-28 23:54:00,69.0,68.4,29.99,NNE,17,0.0,0.0,98,0.00,,,0.09,WUHU216DAVISVP2,2013-08-29 03:54:00,
2013-08-28 23:59:00,69.0,68.4,29.99,NNE,17,0.0,0.0,98,0.00,,,0.09,WUHU216DAVISVP2,2013-08-29 03:59:00,